Weather History for Reno, NV

Change the Weather History Date:

Saturday, December 15, 2012

  Actual Average Record
Temperature  
Mean Temperature 30 °F 35 °F  
Max Temperature 38 °F 45 °F 65 °F (1939)
Min Temperature 21 °F 25 °F 0 °F (1948)
Degree Days  
Heating Degree Days 35 30  
Month to date heating degree days 359 433  
Since 1 July heating degree days 1158 1536  
Cooling Degree Days 0 0  
Month to date cooling degree days 0 0  
Year to date cooling degree days 1272 839  
Moisture  
Dew Point 22 °F    
Average Humidity 66    
Maximum Humidity 92    
Minimum Humidity 40    
Precipitation  
Precipitation T in 0.03 in 0.45 in (1895)
Month to date precipitation 0.98 0.45  
Year to date precipitation 4.64 6.82  
Snow  
Snow T in 0.20 in 2.60 in (1933)
Month to date snowfall 0.4 1.7  
Since 1 July snowfall 1.2 5.2  
Snow Depth T in    
Sea Level Pressure  
Sea Level Pressure 29.95 in    
Wind  
Wind Speed 2 mph (East)    
Max Wind Speed 14 mph    
Max Gust Speed 17 mph    
Visibility 10 miles    
Events Snow    
T = Trace of Precipitation, MM = Missing Value Source: NWS Daily Summary

Daily Weather History Graph

Daily Weather History Graph

Search for Another Location

Airport:

Trip Planner

Search our weather history database for the weather conditions in past years. The results will help you decide how hot, cold, wet, or windy it might be!

Date:

Astronomy

Dec. 15, 2012 Rise Set
Actual Time 7:12 AM PST 4:36 PM PST
Civil Twilight 6:42 AM PST 5:06 PM PST
Nautical Twilight 6:08 AM PST 5:40 PM PST
Astronomical Twilight 5:35 AM PST 6:13 PM PST
Moon 9:09 AM PST (12/15) 7:45 PM PST (12/15)
Length of Visible Light 10h 24m
Length of Day
9h 23m
Waxing Crescent, 9% of the Moon is Illuminated
Dec 15
Waxing Crescent
Dec 19
First Quarter
Dec 28
Full
Jan 4
Last Quarter
Jan 11
New

Hourly Weather History & Observations

Time (PST) Temp. Windchill Dew Point Humidity Pressure Visibility Wind Dir Wind Speed Gust Speed Precip Events Conditions
12:55 AM 28.9 °F - 26.1 °F 89% 29.94 in 10.0 mi Calm Calm - N/A   Mostly Cloudy
1:55 AM 27.0 °F 23.0 °F 24.1 °F 89% 29.96 in 10.0 mi East 3.5 mph - N/A   Mostly Cloudy
2:55 AM 27.0 °F - 24.1 °F 89% 29.97 in 10.0 mi Calm Calm - N/A   Mostly Cloudy
3:04 AM 26.6 °F - 24.8 °F 93% 29.94 in 10.0 mi Calm Calm - N/A   Mostly Cloudy
3:55 AM 24.1 °F 19.7 °F 21.0 °F 88% 29.96 in 10.0 mi SSE 3.5 mph - N/A   Partly Cloudy
4:55 AM 24.1 °F - 21.0 °F 88% 29.97 in 10.0 mi Calm Calm - N/A   Clear
5:55 AM 23.0 °F 18.4 °F 19.4 °F 86% 29.98 in 10.0 mi South 3.5 mph - N/A   Partly Cloudy
6:55 AM 21.9 °F - 18.0 °F 85% 29.99 in 10.0 mi Calm Calm - N/A   Partly Cloudy
7:55 AM 24.8 °F 20.5 °F 17.6 °F 74% 29.99 in 10.0 mi NW 3.5 mph - N/A   Scattered Clouds
8:55 AM 24.1 °F 19.7 °F 21.0 °F 88% 29.99 in 7.0 mi NE 3.5 mph - N/A   Mostly Cloudy
9:55 AM 28.0 °F - 21.9 °F 78% 29.99 in 10.0 mi Calm Calm - N/A   Mostly Cloudy
10:55 AM 30.0 °F - 23.0 °F 75% 29.98 in 10.0 mi Calm Calm - N/A   Overcast
11:55 AM 32.0 °F 28.7 °F 23.0 °F 69% 29.94 in 10.0 mi NE 3.5 mph - N/A   Overcast
12:55 PM 34.0 °F 31.0 °F 21.9 °F 61% 29.92 in 10.0 mi ENE 3.5 mph - N/A   Overcast
1:55 PM 37.0 °F 33.3 °F 19.0 °F 48% 29.89 in 10.0 mi East 4.6 mph - N/A   Overcast
2:55 PM 37.0 °F - 16.0 °F 42% 29.90 in 10.0 mi Calm Calm - N/A   Overcast
3:55 PM 36.0 °F 29.6 °F 19.9 °F 52% 29.91 in 10.0 mi WNW 8.1 mph - N/A   Overcast
4:55 PM 34.0 °F - 23.0 °F 64% 29.92 in 8.0 mi Calm Calm - 0.00 in Snow Light Snow
5:55 PM 33.1 °F 28.7 °F 25.0 °F 72% 29.93 in 10.0 mi East 4.6 mph - 0.00 in   Mostly Cloudy
6:55 PM 32.0 °F 28.7 °F 25.0 °F 75% 29.92 in 10.0 mi East 3.5 mph - N/A   Overcast
7:55 PM 33.1 °F 27.7 °F 25.0 °F 72% 29.93 in 10.0 mi East 5.8 mph - N/A   Overcast
8:55 PM 35.1 °F 32.2 °F 23.0 °F 61% 29.93 in 10.0 mi East 3.5 mph - N/A   Overcast
9:55 PM 32.0 °F - 25.0 °F 75% 29.94 in 10.0 mi Calm Calm - N/A   Overcast
10:55 PM 32.0 °F 28.7 °F 25.0 °F 75% 29.94 in 10.0 mi SE 3.5 mph - N/A   Mostly Cloudy
11:55 PM 30.2 °F - 24.8 °F 80% 29.89 in 10.0 mi Calm Calm - N/A   Scattered Clouds